Time,TemperatureF,DewpointF,PressureIn,WindDirection,WindDirectionDegrees,WindSpeedMPH,WindSpeedGustMPH,Humidity,HourlyPrecipIn,Conditions,Clouds,dailyrainin,SoftwareType,DateUTC
2013-11-11 00:00:00,47.7,22.7,29.21,ENE,58,0.0,0.0,37,0.00,,,0.00,VWS V14.00,2013-11-11 05:00:00,
2013-11-11 00:01:00,47.7,22.7,29.21,ENE,58,0.0,0.0,37,0.00,,,0.00,VWS V14.00,2013-11-11 05:01:00,
2013-11-11 00:06:00,47.5,23.2,29.21,ENE,58,0.0,0.0,38,0.00,,,0.00,VWS V14.00,2013-11-11 05:06:00,
2013-11-11 00:11:00,47.3,23.0,29.21,ENE,58,0.0,0.0,38,0.00,,,0.00,VWS V14.00,2013-11-11 05:11:00,
2013-11-11 00:16:00,47.1,22.8,29.21,ENE,58,0.0,0.0,38,0.00,,,0.00,VWS V14.00,2013-11-11 05:16:00,
2013-11-11 00:21:00,46.6,22.4,29.21,NNW,333,0.0,0.0,38,0.00,,,0.00,VWS V14.00,2013-11-11 05:21:00,
2013-11-11 00:26:00,45.9,21.7,29.23,NNW,344,0.0,0.0,38,0.00,,,0.00,VWS V14.00,2013-11-11 05:26:00,
2013-11-11 00:31:00,45.3,21.2,29.23,NNW,344,0.0,0.0,38,0.00,,,0.00,VWS V14.00,2013-11-11 05:31:00,
2013-11-11 00:36:00,44.8,20.7,29.23,NNW,344,0.0,0.0,38,0.00,,,0.00,VWS V14.00,2013-11-11 05:36:00,
2013-11-11 00:41:00,44.6,20.6,29.23,NNW,344,0.0,0.0,38,0.00,,,0.00,VWS V14.00,2013-11-11 05:41:00,
2013-11-11 00:46:00,44.2,20.3,29.23,ESE,113,0.0,0.0,38,0.00,,,0.00,VWS V14.00,2013-11-11 05:46:00,
2013-11-11 00:51:00,44.2,20.3,29.23,ESE,113,0.0,0.0,38,0.00,,,0.00,VWS V14.00,2013-11-11 05:51:00,
2013-11-11 00:56:00,43.5,19.6,29.23,ESE,113,0.0,0.0,38,0.00,,,0.00,VWS V14.00,2013-11-11 05:56:00,
2013-11-11 01:01:00,43.2,19.3,29.23,ESE,113,0.0,0.0,38,0.00,,,0.00,VWS V14.00,2013-11-11 06:01:00,
2013-11-11 01:06:00,42.4,19.2,29.23,ESE,113,0.0,0.0,39,0.00,,,0.00,VWS V14.00,2013-11-11 06:06:00,
2013-11-11 01:11:00,42.3,19.1,29.23,ESE,113,0.0,0.0,39,0.00,,,0.00,VWS V14.00,2013-11-11 06:11:00,
2013-11-11 01:16:00,41.9,18.8,29.23,ESE,113,0.0,0.0,39,0.00,,,0.00,VWS V14.00,2013-11-11 06:16:00,
2013-11-11 01:21:00,41.7,18.6,29.23,ESE,113,0.0,0.0,39,0.00,,,0.00,VWS V14.00,2013-11-11 06:21:00,
2013-11-11 01:26:00,41.5,18.4,29.23,ESE,113,0.0,0.0,39,0.00,,,0.00,VWS V14.00,2013-11-11 06:26:00,
2013-11-11 01:31:00,41.2,18.1,29.23,ESE,113,0.0,0.0,39,0.00,,,0.00,VWS V14.00,2013-11-11 06:31:00,
2013-11-11 01:36:00,41.0,18.0,29.23,ESE,113,0.0,0.0,39,0.00,,,0.00,VWS V14.00,2013-11-11 06:36:00,
2013-11-11 01:41:00,40.6,18.2,29.23,ESE,113,0.0,0.0,40,0.00,,,0.00,VWS V14.00,2013-11-11 06:41:00,
2013-11-11 01:46:00,40.3,17.9,29.23,ESE,113,0.0,0.0,40,0.00,,,0.00,VWS V14.00,2013-11-11 06:46:00,
2013-11-11 01:51:00,39.7,17.4,29.23,ESE,113,0.0,0.0,40,0.00,,,0.00,VWS V14.00,2013-11-11 06:51:00,
2013-11-11 01:56:00,39.2,16.9,29.23,ESE,112,0.0,0.0,40,0.00,,,0.00,VWS V14.00,2013-11-11 06:56:00,
2013-11-11 02:01:00,38.8,16.6,29.23,ESE,113,0.0,0.0,40,0.00,,,0.00,VWS V14.00,2013-11-11 07:01:00,
2013-11-11 02:06:00,38.7,16.4,29.23,ESE,113,0.0,0.0,40,0.00,,,0.00,VWS V14.00,2013-11-11 07:06:00,
2013-11-11 02:11:00,38.5,16.8,29.23,ESE,113,0.0,0.0,41,0.00,,,0.00,VWS V14.00,2013-11-11 07:11:00,
2013-11-11 02:16:00,38.5,16.8,29.23,ESE,113,0.0,0.0,41,0.00,,,0.00,VWS V14.00,2013-11-11 07:16:00,
2013-11-11 02:21:00,38.3,16.7,29.23,ESE,113,0.0,0.0,41,0.00,,,0.00,VWS V14.00,2013-11-11 07:21:00,
2013-11-11 02:26:00,38.1,16.5,29.23,ESE,113,0.0,0.0,41,0.00,,,0.00,VWS V14.00,2013-11-11 07:26:00,
2013-11-11 02:31:00,38.1,16.5,29.23,ESE,113,0.0,0.0,41,0.00,,,0.00,VWS V14.00,2013-11-11 07:31:00,
2013-11-11 02:36:00,37.8,16.2,29.23,ESE,113,0.0,0.0,41,0.00,,,0.00,VWS V14.00,2013-11-11 07:36:00,
2013-11-11 02:41:00,37.4,15.9,29.23,ESE,113,0.0,0.0,41,0.00,,,0.00,VWS V14.00,2013-11-11 07:41:00,
2013-11-11 02:46:00,37.4,15.9,29.23,ESE,113,0.0,0.0,41,0.00,,,0.00,VWS V14.00,2013-11-11 07:46:00,
2013-11-11 02:51:00,37.0,16.1,29.23,ESE,113,0.0,0.0,42,0.00,,,0.00,VWS V14.00,2013-11-11 07:51:00,
2013-11-11 02:56:00,36.9,15.9,29.26,ESE,113,0.0,0.0,42,0.00,,,0.00,VWS V14.00,2013-11-11 07:56:00,
2013-11-11 03:01:00,36.7,15.8,29.26,ESE,113,0.0,0.0,42,0.00,,,0.00,VWS V14.00,2013-11-11 08:01:00,
2013-11-11 03:06:00,36.5,16.1,29.26,ESE,113,0.0,0.0,43,0.00,,,0.00,VWS V14.00,2013-11-11 08:06:00,
2013-11-11 03:11:00,36.3,16.0,29.23,ESE,113,0.0,0.0,43,0.00,,,0.00,VWS V14.00,2013-11-11 08:11:00,
2013-11-11 03:16:00,36.0,15.6,29.23,ESE,113,0.0,0.0,43,0.00,,,0.00,VWS V14.00,2013-11-11 08:16:00,
2013-11-11 03:21:00,35.8,15.5,29.23,ESE,113,0.0,0.0,43,0.00,,,0.00,VWS V14.00,2013-11-11 08:21:00,
2013-11-11 03:26:00,35.6,15.3,29.23,ESE,113,0.0,0.0,43,0.00,,,0.00,VWS V14.00,2013-11-11 08:26:00,
2013-11-11 03:31:00,35.6,15.3,29.23,ESE,113,0.0,0.0,43,0.00,,,0.00,VWS V14.00,2013-11-11 08:31:00,
2013-11-11 03:36:00,35.2,15.5,29.23,ESE,113,0.0,0.0,44,0.00,,,0.00,VWS V14.00,2013-11-11 08:36:00,
2013-11-11 03:41:00,35.2,15.5,29.23,ESE,113,0.0,0.0,44,0.00,,,0.00,VWS V14.00,2013-11-11 08:41:00,
2013-11-11 03:46:00,35.4,15.7,29.23,ESE,113,0.0,0.0,44,0.00,,,0.00,VWS V14.00,2013-11-11 08:46:00,
2013-11-11 03:51:00,35.4,16.2,29.23,ESE,113,0.0,0.0,45,0.00,,,0.00,VWS V14.00,2013-11-11 08:51:00,
2013-11-11 03:56:00,35.4,16.2,29.26,ESE,113,0.0,0.0,45,0.00,,,0.00,VWS V14.00,2013-11-11 08:56:00,
2013-11-11 04:01:00,35.4,16.2,29.26,ESE,113,0.0,0.0,45,0.00,,,0.00,VWS V14.00,2013-11-11 09:01:00,
2013-11-11 04:06:00,35.4,16.2,29.26,ESE,113,0.0,0.0,45,0.00,,,0.00,VWS V14.00,2013-11-11 09:06:00,
2013-11-11 04:11:00,35.2,16.0,29.26,ESE,113,0.0,0.0,45,0.00,,,0.00,VWS V14.00,2013-11-11 09:11:00,
2013-11-11 04:16:00,35.2,16.0,29.23,ESE,113,0.0,0.0,45,0.00,,,0.00,VWS V14.00,2013-11-11 09:16:00,
2013-11-11 04:21:00,35.1,15.9,29.23,ESE,112,0.0,0.0,45,0.00,,,0.00,VWS V14.00,2013-11-11 09:21:00,
2013-11-11 04:26:00,34.7,15.6,29.23,ESE,113,0.0,0.0,45,0.00,,,0.00,VWS V14.00,2013-11-11 09:26:00,
2013-11-11 04:31:00,34.5,15.4,29.23,ESE,113,0.0,0.0,45,0.00,,,0.00,VWS V14.00,2013-11-11 09:31:00,
2013-11-11 04:36:00,34.3,15.2,29.23,ESE,113,0.0,0.0,45,0.00,,,0.00,VWS V14.00,2013-11-11 09:36:00,
2013-11-11 04:41:00,34.0,15.4,29.26,ESE,113,0.0,0.0,46,0.00,,,0.00,VWS V14.00,2013-11-11 09:41:00,
2013-11-11 04:46:00,34.0,15.4,29.26,ESE,113,0.0,0.0,46,0.00,,,0.00,VWS V14.00,2013-11-11 09:46:00,
2013-11-11 04:51:00,33.8,15.2,29.26,ESE,113,0.0,0.0,46,0.00,,,0.00,VWS V14.00,2013-11-11 09:51:00,
2013-11-11 04:56:00,33.4,14.9,29.26,ESE,113,0.0,0.0,46,0.00,,,0.00,VWS V14.00,2013-11-11 09:56:00,
2013-11-11 05:01:00,32.9,14.4,29.26,ESE,113,0.0,0.0,46,0.00,,,0.00,VWS V14.00,2013-11-11 10:01:00,
2013-11-11 05:06:00,32.7,14.7,29.26,ESE,113,0.0,0.0,47,0.00,,,0.00,VWS V14.00,2013-11-11 10:06:00,
2013-11-11 05:11:00,32.7,14.7,29.26,ESE,113,0.0,0.0,47,0.00,,,0.00,VWS V14.00,2013-11-11 10:11:00,
2013-11-11 05:16:00,32.7,15.2,29.26,ESE,113,0.0,0.0,48,0.00,,,0.00,VWS V14.00,2013-11-11 10:16:00,
2013-11-11 05:21:00,32.7,15.2,29.26,ESE,113,0.0,0.0,48,0.00,,,0.00,VWS V14.00,2013-11-11 10:21:00,
2013-11-11 05:26:00,32.5,15.5,29.26,ESE,113,0.0,0.0,49,0.00,,,0.00,VWS V14.00,2013-11-11 10:26:00,
2013-11-11 05:31:00,32.5,15.5,29.26,ESE,113,0.0,0.0,49,0.00,,,0.00,VWS V14.00,2013-11-11 10:31:00,
2013-11-11 05:36:00,32.5,15.5,29.26,ESE,113,0.0,0.0,49,0.00,,,0.00,VWS V14.00,2013-11-11 10:36:00,
2013-11-11 05:41:00,32.4,15.4,29.26,ESE,113,0.0,0.0,49,0.00,,,0.00,VWS V14.00,2013-11-11 10:41:00,
2013-11-11 05:46:00,32.4,15.8,29.26,ESE,113,0.0,0.0,50,0.00,,,0.00,VWS V14.00,2013-11-11 10:46:00,
2013-11-11 05:51:00,32.2,15.6,29.26,ESE,113,0.0,0.0,50,0.00,,,0.00,VWS V14.00,2013-11-11 10:51:00,
2013-11-11 05:56:00,32.2,15.6,29.26,ESE,113,0.0,0.0,50,0.00,,,0.00,VWS V14.00,2013-11-11 10:56:00,
2013-11-11 06:01:00,32.2,15.6,29.26,ESE,113,0.0,0.0,50,0.00,,,0.00,VWS V14.00,2013-11-11 11:01:00,
2013-11-11 06:06:00,32.0,15.5,29.26,ESE,113,0.0,0.0,50,0.00,,,0.00,VWS V14.00,2013-11-11 11:06:00,
2013-11-11 06:11:00,32.0,15.5,29.26,ESE,113,0.0,0.0,50,0.00,,,0.00,VWS V14.00,2013-11-11 11:11:00,
2013-11-11 06:16:00,31.6,15.1,29.26,ESE,113,0.0,0.0,50,0.00,,,0.00,VWS V14.00,2013-11-11 11:16:00,
2013-11-11 06:21:00,31.3,14.8,29.26,ESE,113,0.0,0.0,50,0.00,,,0.00,VWS V14.00,2013-11-11 11:21:00,
2013-11-11 06:26:00,31.3,14.8,29.26,ESE,112,0.0,0.0,50,0.00,,,0.00,VWS V14.00,2013-11-11 11:26:00,
2013-11-11 06:31:00,31.1,14.6,29.26,ESE,113,0.0,0.0,50,0.00,,,0.00,VWS V14.00,2013-11-11 11:31:00,
2013-11-11 06:36:00,31.1,15.1,29.26,ESE,113,0.0,0.0,51,0.00,,,0.00,VWS V14.00,2013-11-11 11:36:00,
2013-11-11 06:41:00,31.1,15.1,29.26,ESE,113,0.0,0.0,51,0.00,,,0.00,VWS V14.00,2013-11-11 11:41:00,
2013-11-11 06:46:00,31.1,15.1,29.26,ESE,113,0.0,0.0,51,0.00,,,0.00,VWS V14.00,2013-11-11 11:46:00,
2013-11-11 06:51:00,31.1,15.1,29.26,ESE,113,0.0,0.0,51,0.00,,,0.00,VWS V14.00,2013-11-11 11:51:00,
2013-11-11 06:56:00,31.1,15.1,29.26,ESE,113,0.0,0.0,51,0.00,,,0.00,VWS V14.00,2013-11-11 11:56:00,
2013-11-11 07:01:00,30.9,14.9,29.26,ESE,113,0.0,0.0,51,0.00,,,0.00,VWS V14.00,2013-11-11 12:01:00,
2013-11-11 07:06:00,30.9,14.9,29.26,ESE,113,0.0,0.0,51,0.00,,,0.00,VWS V14.00,2013-11-11 12:06:00,
2013-11-11 07:11:00,30.9,15.4,29.26,ESE,113,0.0,0.0,52,0.00,,,0.00,VWS V14.00,2013-11-11 12:11:00,
2013-11-11 07:16:00,31.1,15.5,29.26,ESE,113,0.0,0.0,52,0.00,,,0.00,VWS V14.00,2013-11-11 12:16:00,
2013-11-11 07:21:00,31.1,15.5,29.26,ESE,113,0.0,0.0,52,0.00,,,0.00,VWS V14.00,2013-11-11 12:21:00,
2013-11-11 07:26:00,31.1,15.5,29.29,ESE,113,0.0,0.0,52,0.00,,,0.00,VWS V14.00,2013-11-11 12:26:00,
2013-11-11 07:31:00,30.7,15.2,29.29,ESE,113,0.0,0.0,52,0.00,,,0.00,VWS V14.00,2013-11-11 12:31:00,
2013-11-11 07:36:00,30.9,15.4,29.29,ESE,113,0.0,0.0,52,0.00,,,0.00,VWS V14.00,2013-11-11 12:36:00,
2013-11-11 07:41:00,31.1,16.0,29.29,ESE,113,0.0,0.0,53,0.00,,,0.00,VWS V14.00,2013-11-11 12:41:00,
2013-11-11 07:46:00,31.3,16.1,29.29,ESE,113,0.0,0.0,53,0.00,,,0.00,VWS V14.00,2013-11-11 12:46:00,
2013-11-11 07:51:00,31.6,16.5,29.29,ESE,113,0.0,0.0,53,0.00,,,0.00,VWS V14.00,2013-11-11 12:51:00,
2013-11-11 07:56:00,32.2,17.0,29.29,ESE,113,0.0,0.0,53,0.00,,,0.00,VWS V14.00,2013-11-11 12:56:00,
2013-11-11 08:01:00,32.5,17.8,29.29,ESE,113,0.0,0.0,54,0.00,,,0.00,VWS V14.00,2013-11-11 13:01:00,
2013-11-11 08:06:00,33.1,18.3,29.29,ESE,113,0.0,0.0,54,0.00,,,0.00,VWS V14.00,2013-11-11 13:06:00,
2013-11-11 08:11:00,33.4,18.6,29.29,ESE,113,0.0,0.0,54,0.00,,,0.00,VWS V14.00,2013-11-11 13:11:00,
2013-11-11 08:16:00,34.0,19.1,29.29,ESE,112,0.0,0.0,54,0.00,,,0.00,VWS V14.00,2013-11-11 13:16:00,
2013-11-11 08:21:00,34.5,20.0,29.29,ESE,113,0.0,0.0,55,0.00,,,0.00,VWS V14.00,2013-11-11 13:21:00,
2013-11-11 08:26:00,35.2,20.7,29.29,ESE,113,0.0,0.0,55,0.00,,,0.00,VWS V14.00,2013-11-11 13:26:00,
2013-11-11 08:31:00,35.8,21.2,29.29,ESE,113,0.0,0.0,55,0.00,,,0.00,VWS V14.00,2013-11-11 13:31:00,
2013-11-11 08:36:00,36.3,21.3,29.29,ESE,113,0.0,0.0,54,0.00,,,0.00,VWS V14.00,2013-11-11 13:36:00,
2013-11-11 08:41:00,36.9,21.8,29.29,ESE,113,0.0,0.0,54,0.00,,,0.00,VWS V14.00,2013-11-11 13:41:00,
2013-11-11 08:46:00,37.6,21.6,29.29,ESE,113,0.0,0.0,52,0.00,,,0.00,VWS V14.00,2013-11-11 13:46:00,
2013-11-11 08:51:00,38.3,21.8,29.29,ESE,113,0.0,0.0,51,0.00,,,0.00,VWS V14.00,2013-11-11 13:51:00,
2013-11-11 08:56:00,39.2,22.1,29.29,ESE,113,0.0,0.0,50,0.00,,,0.00,VWS V14.00,2013-11-11 13:56:00,
2013-11-11 09:01:00,39.9,22.3,29.32,ESE,113,0.0,0.0,49,0.00,,,0.00,VWS V14.00,2013-11-11 14:01:00,
2013-11-11 09:06:00,40.5,22.3,29.32,WSW,247,0.0,0.0,48,0.00,,,0.00,VWS V14.00,2013-11-11 14:06:00,
2013-11-11 09:11:00,41.5,21.8,29.32,WSW,247,0.0,0.0,45,0.00,,,0.00,VWS V14.00,2013-11-11 14:11:00,
2013-11-11 09:16:00,42.6,22.2,29.32,WSW,247,0.0,0.0,44,0.00,,,0.00,VWS V14.00,2013-11-11 14:16:00,
2013-11-11 09:21:00,43.2,21.6,29.32,NE,36,0.0,0.0,42,0.00,,,0.00,VWS V14.00,2013-11-11 14:21:00,
2013-11-11 09:26:00,43.7,22.1,29.32,NW,326,0.0,0.0,42,0.00,,,0.00,VWS V14.00,2013-11-11 14:26:00,
2013-11-11 09:31:00,44.8,22.0,29.29,West,262,0.0,0.0,40,0.00,,,0.00,VWS V14.00,2013-11-11 14:31:00,
2013-11-11 09:36:00,45.7,22.2,29.29,NE,49,2.2,2.2,39,0.00,,,0.00,VWS V14.00,2013-11-11 14:36:00,
2013-11-11 09:41:00,46.6,23.0,29.29,NE,40,0.0,0.0,39,0.00,,,0.00,VWS V14.00,2013-11-11 14:41:00,
2013-11-11 09:46:00,47.1,22.8,29.29,NE,37,0.0,0.0,38,0.00,,,0.00,VWS V14.00,2013-11-11 14:46:00,
2013-11-11 09:51:00,47.8,23.5,29.29,ENE,65,2.2,2.2,38,0.00,,,0.00,VWS V14.00,2013-11-11 14:51:00,
2013-11-11 09:56:00,48.4,23.3,29.29,NNE,30,0.0,0.0,37,0.00,,,0.00,VWS V14.00,2013-11-11 14:56:00,
2013-11-11 10:00:00,48.7,23.6,29.29,South,184,3.6,3.6,37,0.00,,,0.00,VWS V14.00,2013-11-11 15:00:00,
2013-11-11 10:05:00,48.9,23.8,29.29,NNW,327,2.7,2.7,37,0.00,,,0.00,VWS V14.00,2013-11-11 15:05:00,
2013-11-11 10:10:00,49.5,24.3,29.29,NNE,14,2.2,2.2,37,0.00,,,0.00,VWS V14.00,2013-11-11 15:10:00,
2013-11-11 10:15:00,49.6,24.5,29.29,ENE,58,4.5,4.5,37,0.00,,,0.00,VWS V14.00,2013-11-11 15:15:00,
2013-11-11 10:20:00,49.8,24.6,29.29,NE,37,2.7,2.7,37,0.00,,,0.00,VWS V14.00,2013-11-11 15:20:00,
2013-11-11 10:25:00,50.2,24.9,29.29,ESE,113,4.0,4.0,37,0.00,,,0.00,VWS V14.00,2013-11-11 15:25:00,
2013-11-11 10:30:00,50.5,25.2,29.29,NNE,25,3.1,3.1,37,0.00,,,0.00,VWS V14.00,2013-11-11 15:30:00,
2013-11-11 10:35:00,50.7,25.4,29.29,ENE,68,3.1,3.1,37,0.00,,,0.00,VWS V14.00,2013-11-11 15:35:00,
2013-11-11 10:40:00,50.7,25.4,29.29,East,93,2.2,2.2,37,0.00,,,0.00,VWS V14.00,2013-11-11 15:40:00,
2013-11-11 10:45:00,50.9,25.6,29.29,ESE,109,4.9,4.9,37,0.00,,,0.00,VWS V14.00,2013-11-11 15:45:00,
2013-11-11 10:50:00,51.1,25.7,29.29,East,97,3.1,3.1,37,0.00,,,0.00,VWS V14.00,2013-11-11 15:50:00,
2013-11-11 10:55:00,51.3,25.9,29.29,NE,55,3.1,3.1,37,0.00,,,0.00,VWS V14.00,2013-11-11 15:55:00,
2013-11-11 11:00:00,51.3,25.9,29.29,NE,37,2.7,2.7,37,0.00,,,0.00,VWS V14.00,2013-11-11 16:00:00,
2013-11-11 11:05:00,51.4,26.0,29.29,NE,36,0.0,0.0,37,0.00,,,0.00,VWS V14.00,2013-11-11 16:05:00,
2013-11-11 11:10:00,51.6,26.2,29.29,NNE,25,3.1,3.1,37,0.00,,,0.00,VWS V14.00,2013-11-11 16:10:00,
2013-11-11 11:15:00,51.6,26.2,29.29,ENE,58,4.0,4.0,37,0.00,,,0.00,VWS V14.00,2013-11-11 16:15:00,
2013-11-11 11:20:00,51.8,25.7,29.29,East,84,3.1,3.6,36,0.00,,,0.00,VWS V14.00,2013-11-11 16:20:00,
2013-11-11 11:25:00,52.0,25.9,29.29,NNE,17,0.0,0.0,36,0.00,,,0.00,VWS V14.00,2013-11-11 16:25:00,
2013-11-11 11:30:00,52.0,25.9,29.29,ESE,111,2.7,2.7,36,0.00,,,0.00,VWS V14.00,2013-11-11 16:30:00,
2013-11-11 11:35:00,52.2,26.0,29.29,NE,45,2.7,2.7,36,0.00,,,0.00,VWS V14.00,2013-11-11 16:35:00,
2013-11-11 11:40:00,52.3,26.2,29.29,East,92,2.7,2.7,36,0.00,,,0.00,VWS V14.00,2013-11-11 16:40:00,
2013-11-11 11:45:00,52.5,26.4,29.26,North,11,3.1,3.1,36,0.00,,,0.00,VWS V14.00,2013-11-11 16:45:00,
2013-11-11 11:48:00,52.7,26.5,29.26,NW,307,0.0,0.0,36,0.00,,,0.00,VWS V14.00,2013-11-11 16:48:00,
2013-11-11 11:49:00,52.9,26.7,29.26,NNW,334,3.6,3.6,36,0.00,,,0.00,VWS V14.00,2013-11-11 16:49:00,
2013-11-11 11:50:00,52.7,26.5,29.26,NW,307,0.0,0.0,36,0.00,,,0.00,VWS V14.00,2013-11-11 16:50:00,
2013-11-11 11:51:00,52.9,26.7,29.26,North,357,2.2,3.1,36,0.00,,,0.00,VWS V14.00,2013-11-11 16:51:00,
2013-11-11 11:52:00,52.9,26.7,29.26,NNW,342,2.7,3.1,36,0.00,,,0.00,VWS V14.00,2013-11-11 16:52:00,
2013-11-11 11:53:00,52.9,26.7,29.26,NNW,342,2.2,2.7,36,0.00,,,0.00,VWS V14.00,2013-11-11 16:53:00,
2013-11-11 11:54:00,52.9,26.7,29.26,North,349,0.0,2.2,36,0.00,,,0.00,VWS V14.00,2013-11-11 16:54:00,
2013-11-11 11:55:00,52.9,26.7,29.26,NNW,342,2.2,2.2,36,0.00,,,0.00,VWS V14.00,2013-11-11 16:55:00,
2013-11-11 11:56:00,52.9,26.7,29.26,North,349,0.0,0.0,36,0.00,,,0.00,VWS V14.00,2013-11-11 16:56:00,
2013-11-11 11:57:00,52.9,26.7,29.26,NNE,12,0.0,0.0,36,0.00,,,0.00,VWS V14.00,2013-11-11 16:57:00,
2013-11-11 11:58:00,52.9,26.7,29.26,NNE,12,0.0,0.0,36,0.00,,,0.00,VWS V14.00,2013-11-11 16:58:00,
2013-11-11 11:59:00,52.9,26.7,29.26,ENE,66,0.0,0.0,36,0.00,,,0.00,VWS V14.00,2013-11-11 16:59:00,
2013-11-11 12:00:00,52.9,26.7,29.26,NNE,12,0.0,0.0,36,0.00,,,0.00,VWS V14.00,2013-11-11 17:00:00,
2013-11-11 12:01:00,52.9,26.7,29.26,NNE,27,2.7,5.4,36,0.00,,,0.00,VWS V14.00,2013-11-11 17:01:00,
2013-11-11 12:02:00,52.9,26.7,29.26,NNE,27,0.0,3.1,36,0.00,,,0.00,VWS V14.00,2013-11-11 17:02:00,
2013-11-11 12:03:00,52.9,26.7,29.26,WNW,301,0.0,0.0,36,0.00,,,0.00,VWS V14.00,2013-11-11 17:03:00,
2013-11-11 12:04:00,52.9,26.7,29.26,WNW,301,0.0,0.0,36,0.00,,,0.00,VWS V14.00,2013-11-11 17:04:00,
2013-11-11 12:05:00,52.9,26.7,29.26,WNW,301,0.0,0.0,36,0.00,,,0.00,VWS V14.00,2013-11-11 17:05:00,
2013-11-11 12:06:00,52.9,26.7,29.26,ESE,123,0.0,3.1,36,0.00,,,0.00,VWS V14.00,2013-11-11 17:06:00,
2013-11-11 12:08:00,52.9,26.7,29.26,North,3,0.0,0.0,36,0.00,,,0.00,VWS V14.00,2013-11-11 17:08:00,
2013-11-11 12:09:00,52.9,26.7,29.26,WSW,256,0.0,0.0,36,0.00,,,0.00,VWS V14.00,2013-11-11 17:09:00,
2013-11-11 12:10:00,52.9,26.7,29.26,North,3,0.0,0.0,36,0.00,,,0.00,VWS V14.00,2013-11-11 17:10:00,
2013-11-11 12:11:00,52.9,26.7,29.26,SW,233,0.0,3.1,36,0.00,,,0.00,VWS V14.00,2013-11-11 17:11:00,
2013-11-11 12:12:00,52.9,26.7,29.26,East,79,0.0,0.0,36,0.00,,,0.00,VWS V14.00,2013-11-11 17:12:00,
2013-11-11 12:13:00,53.1,26.8,29.26,ESE,112,3.6,3.6,36,0.00,,,0.00,VWS V14.00,2013-11-11 17:13:00,
2013-11-11 12:14:00,53.1,26.8,29.26,ESE,117,3.6,4.0,36,0.00,,,0.00,VWS V14.00,2013-11-11 17:14:00,
2013-11-11 12:15:00,53.1,26.8,29.26,ESE,112,3.6,3.6,36,0.00,,,0.00,VWS V14.00,2013-11-11 17:15:00,
2013-11-11 12:20:00,53.2,27.0,29.26,ESE,106,2.2,4.0,36,0.00,,,0.00,VWS V14.00,2013-11-11 17:20:00,
2013-11-11 12:25:00,53.4,27.1,29.23,SE,124,2.7,2.7,36,0.00,,,0.00,VWS V14.00,2013-11-11 17:25:00,
2013-11-11 12:30:00,53.4,27.1,29.23,ESE,116,3.1,3.1,36,0.00,,,0.00,VWS V14.00,2013-11-11 17:30:00,
2013-11-11 12:35:00,53.6,27.3,29.23,NW,305,2.2,2.2,36,0.00,,,0.00,VWS V14.00,2013-11-11 17:35:00,
2013-11-11 12:40:00,53.8,27.5,29.23,SE,134,0.0,0.0,36,0.00,,,0.00,VWS V14.00,2013-11-11 17:40:00,
2013-11-11 12:45:00,54.0,27.6,29.23,SW,224,2.7,4.0,36,0.00,,,0.00,VWS V14.00,2013-11-11 17:45:00,
2013-11-11 12:50:00,54.3,28.0,29.23,SSW,206,3.6,3.6,36,0.00,,,0.00,VWS V14.00,2013-11-11 17:50:00,
2013-11-11 12:55:00,54.5,28.1,29.23,East,79,0.0,0.0,36,0.00,,,0.00,VWS V14.00,2013-11-11 17:55:00,
2013-11-11 13:00:00,54.7,28.3,29.23,South,174,0.0,0.0,36,0.00,,,0.00,VWS V14.00,2013-11-11 18:00:00,
2013-11-11 13:05:00,54.7,28.3,29.23,SSW,213,2.2,3.1,36,0.00,,,0.00,VWS V14.00,2013-11-11 18:05:00,
2013-11-11 13:10:00,54.9,28.4,29.23,South,181,0.0,3.1,36,0.00,,,0.00,VWS V14.00,2013-11-11 18:10:00,
2013-11-11 13:15:00,55.0,28.6,29.23,NNE,22,0.0,0.0,36,0.00,,,0.00,VWS V14.00,2013-11-11 18:15:00,
2013-11-11 13:20:00,55.2,28.8,29.23,East,97,4.0,4.0,36,0.00,,,0.00,VWS V14.00,2013-11-11 18:20:00,
2013-11-11 13:25:00,55.2,28.8,29.23,ENE,73,0.0,4.0,36,0.00,,,0.00,VWS V14.00,2013-11-11 18:25:00,
2013-11-11 13:30:00,55.2,28.8,29.21,ESE,113,0.0,3.6,36,0.00,,,0.00,VWS V14.00,2013-11-11 18:30:00,
2013-11-11 13:35:00,55.6,28.4,29.21,NW,317,4.5,4.9,35,0.00,,,0.00,VWS V14.00,2013-11-11 18:35:00,
2013-11-11 13:40:00,55.9,28.7,29.21,NE,47,0.0,0.0,35,0.00,,,0.00,VWS V14.00,2013-11-11 18:40:00,
2013-11-11 13:45:00,56.3,29.0,29.21,ESE,120,4.0,4.0,35,0.00,,,0.00,VWS V14.00,2013-11-11 18:45:00,
2013-11-11 13:50:00,56.7,29.3,29.21,SSE,149,2.2,2.7,35,0.00,,,0.00,VWS V14.00,2013-11-11 18:50:00,
2013-11-11 13:55:00,56.8,29.5,29.21,WNW,284,2.2,3.6,35,0.00,,,0.00,VWS V14.00,2013-11-11 18:55:00,
2013-11-11 14:00:00,57.0,29.7,29.21,ENE,77,4.0,4.0,35,0.00,,,0.00,VWS V14.00,2013-11-11 19:00:00,
2013-11-11 14:05:00,57.0,29.7,29.21,ENE,73,0.0,2.2,35,0.00,,,0.00,VWS V14.00,2013-11-11 19:05:00,
2013-11-11 14:10:00,57.0,29.7,29.21,SSW,205,0.0,0.0,35,0.00,,,0.00,VWS V14.00,2013-11-11 19:10:00,
2013-11-11 14:15:00,57.0,29.7,29.18,West,263,0.0,4.0,35,0.00,,,0.00,VWS V14.00,2013-11-11 19:15:00,
2013-11-11 14:20:00,57.0,29.7,29.18,WSW,245,5.4,5.4,35,0.00,,,0.00,VWS V14.00,2013-11-11 19:20:00,
2013-11-11 14:25:00,57.0,29.7,29.18,NW,322,2.7,3.6,35,0.00,,,0.00,VWS V14.00,2013-11-11 19:25:00,
2013-11-11 14:30:00,57.0,29.7,29.18,SSE,160,2.7,3.6,35,0.00,,,0.00,VWS V14.00,2013-11-11 19:30:00,
2013-11-11 14:35:00,56.8,29.5,29.18,SSW,209,0.0,0.0,35,0.00,,,0.00,VWS V14.00,2013-11-11 19:35:00,
2013-11-11 14:40:00,56.8,29.5,29.18,East,93,0.0,0.0,35,0.00,,,0.00,VWS V14.00,2013-11-11 19:40:00,
2013-11-11 14:45:00,56.7,29.3,29.18,SW,235,2.7,2.7,35,0.00,,,0.00,VWS V14.00,2013-11-11 19:45:00,
2013-11-11 14:50:00,56.7,29.3,29.18,WSW,240,0.0,3.6,35,0.00,,,0.00,VWS V14.00,2013-11-11 19:50:00,
2013-11-11 14:55:00,56.7,29.3,29.18,ESE,111,0.0,2.7,35,0.00,,,0.00,VWS V14.00,2013-11-11 19:55:00,
2013-11-11 15:00:00,56.7,29.3,29.18,SSE,150,0.0,0.0,35,0.00,,,0.00,VWS V14.00,2013-11-11 20:00:00,
2013-11-11 15:05:00,56.8,29.5,29.18,SW,215,2.7,3.1,35,0.00,,,0.00,VWS V14.00,2013-11-11 20:05:00,
2013-11-11 15:10:00,56.8,29.5,29.18,SW,218,4.0,4.9,35,0.00,,,0.00,VWS V14.00,2013-11-11 20:10:00,
2013-11-11 15:15:00,56.8,29.5,29.18,West,264,3.1,3.1,35,0.00,,,0.00,VWS V14.00,2013-11-11 20:15:00,
2013-11-11 15:20:00,56.7,29.3,29.18,East,92,3.6,3.6,35,0.00,,,0.00,VWS V14.00,2013-11-11 20:20:00,
2013-11-11 15:25:00,56.7,29.3,29.15,SW,214,3.1,3.6,35,0.00,,,0.00,VWS V14.00,2013-11-11 20:25:00,
2013-11-11 15:30:00,56.5,29.2,29.15,SE,124,0.0,0.0,35,0.00,,,0.00,VWS V14.00,2013-11-11 20:30:00,
2013-11-11 15:35:00,56.3,29.0,29.15,SW,216,3.6,3.6,35,0.00,,,0.00,VWS V14.00,2013-11-11 20:35:00,
2013-11-11 15:40:00,56.3,29.0,29.15,SW,229,3.6,3.6,35,0.00,,,0.00,VWS V14.00,2013-11-11 20:40:00,
2013-11-11 15:45:00,56.3,29.0,29.15,SE,127,2.2,2.2,35,0.00,,,0.00,VWS V14.00,2013-11-11 20:45:00,
2013-11-11 15:50:00,56.1,28.9,29.15,SE,129,0.0,0.0,35,0.00,,,0.00,VWS V14.00,2013-11-11 20:50:00,
2013-11-11 15:55:00,56.1,28.9,29.15,South,184,2.2,4.0,35,0.00,,,0.00,VWS V14.00,2013-11-11 20:55:00,
2013-11-11 16:00:00,55.9,28.7,29.15,SW,221,0.0,0.0,35,0.00,,,0.00,VWS V14.00,2013-11-11 21:00:00,
2013-11-11 16:05:00,55.8,28.5,29.15,NNW,335,0.0,0.0,35,0.00,,,0.00,VWS V14.00,2013-11-11 21:05:00,
2013-11-11 16:10:00,55.6,28.4,29.15,South,170,0.0,0.0,35,0.00,,,0.00,VWS V14.00,2013-11-11 21:10:00,
2013-11-11 16:15:00,55.4,28.2,29.15,SW,235,3.6,4.9,35,0.00,,,0.00,VWS V14.00,2013-11-11 21:15:00,
2013-11-11 16:20:00,55.2,28.8,29.15,SW,232,0.0,2.2,36,0.00,,,0.00,VWS V14.00,2013-11-11 21:20:00,
2013-11-11 16:25:00,55.0,28.6,29.15,SW,232,0.0,3.1,36,0.00,,,0.00,VWS V14.00,2013-11-11 21:25:00,
2013-11-11 16:30:00,54.9,28.4,29.15,SW,232,0.0,2.7,36,0.00,,,0.00,VWS V14.00,2013-11-11 21:30:00,
2013-11-11 16:35:00,54.7,28.3,29.15,WSW,254,0.0,0.0,36,0.00,,,0.00,VWS V14.00,2013-11-11 21:35:00,
2013-11-11 16:40:00,54.5,28.1,29.15,WSW,254,0.0,0.0,36,0.00,,,0.00,VWS V14.00,2013-11-11 21:40:00,
2013-11-11 16:45:00,54.1,27.8,29.15,SW,229,0.0,0.0,36,0.00,,,0.00,VWS V14.00,2013-11-11 21:45:00,
2013-11-11 16:50:00,53.8,27.5,29.15,SW,229,0.0,0.0,36,0.00,,,0.00,VWS V14.00,2013-11-11 21:50:00,
2013-11-11 16:55:00,53.4,27.1,29.15,SW,229,0.0,0.0,36,0.00,,,0.00,VWS V14.00,2013-11-11 21:55:00,
2013-11-11 17:00:00,53.1,26.8,29.15,SW,229,0.0,0.0,36,0.00,,,0.00,VWS V14.00,2013-11-11 22:00:00,
2013-11-11 17:05:00,52.5,26.4,29.15,SW,229,0.0,0.0,36,0.00,,,0.00,VWS V14.00,2013-11-11 22:05:00,
2013-11-11 17:10:00,52.0,25.9,29.15,SW,229,0.0,0.0,36,0.00,,,0.00,VWS V14.00,2013-11-11 22:10:00,
2013-11-11 17:15:00,51.6,26.2,29.15,SW,229,0.0,0.0,37,0.00,,,0.00,VWS V14.00,2013-11-11 22:15:00,
2013-11-11 17:20:00,51.1,25.7,29.15,SW,229,0.0,0.0,37,0.00,,,0.00,VWS V14.00,2013-11-11 22:20:00,
2013-11-11 17:25:00,50.5,25.2,29.15,SW,229,0.0,0.0,37,0.00,,,0.00,VWS V14.00,2013-11-11 22:25:00,
2013-11-11 17:30:00,49.8,24.6,29.15,SW,229,0.0,0.0,37,0.00,,,0.00,VWS V14.00,2013-11-11 22:30:00,
2013-11-11 17:35:00,49.3,24.1,29.15,SW,229,0.0,0.0,37,0.00,,,0.00,VWS V14.00,2013-11-11 22:35:00,
2013-11-11 17:40:00,48.7,23.6,29.15,SW,229,0.0,0.0,37,0.00,,,0.00,VWS V14.00,2013-11-11 22:40:00,
2013-11-11 17:45:00,48.4,23.3,29.15,SW,229,0.0,0.0,37,0.00,,,0.00,VWS V14.00,2013-11-11 22:45:00,
2013-11-11 17:50:00,47.7,23.3,29.15,SW,229,0.0,0.0,38,0.00,,,0.00,VWS V14.00,2013-11-11 22:50:00,
2013-11-11 17:55:00,47.1,22.8,29.15,SW,229,0.0,0.0,38,0.00,,,0.00,VWS V14.00,2013-11-11 22:55:00,
2013-11-11 18:00:00,46.6,22.4,29.15,SW,229,0.0,0.0,38,0.00,,,0.00,VWS V14.00,2013-11-11 23:00:00,
2013-11-11 18:05:00,46.0,21.9,29.15,SW,229,0.0,0.0,38,0.00,,,0.00,VWS V14.00,2013-11-11 23:05:00,
2013-11-11 18:10:00,45.3,21.2,29.15,SW,229,0.0,0.0,38,0.00,,,0.00,VWS V14.00,2013-11-11 23:10:00,
2013-11-11 18:15:00,45.0,20.9,29.15,SW,229,0.0,0.0,38,0.00,,,0.00,VWS V14.00,2013-11-11 23:15:00,
2013-11-11 18:20:00,44.4,21.0,29.15,SW,229,0.0,0.0,39,0.00,,,0.00,VWS V14.00,2013-11-11 23:20:00,
2013-11-11 18:25:00,44.1,20.7,29.15,SW,229,0.0,0.0,39,0.00,,,0.00,VWS V14.00,2013-11-11 23:25:00,
2013-11-11 18:30:00,43.7,20.4,29.18,SW,229,0.0,0.0,39,0.00,,,0.00,VWS V14.00,2013-11-11 23:30:00,
2013-11-11 18:35:00,43.5,20.2,29.18,SW,229,0.0,0.0,39,0.00,,,0.00,VWS V14.00,2013-11-11 23:35:00,
2013-11-11 18:40:00,43.2,19.9,29.18,SW,229,0.0,0.0,39,0.00,,,0.00,VWS V14.00,2013-11-11 23:40:00,
2013-11-11 18:45:00,43.0,19.7,29.15,SW,229,0.0,0.0,39,0.00,,,0.00,VWS V14.00,2013-11-11 23:45:00,
2013-11-11 18:50:00,42.6,20.0,29.15,SW,229,0.0,0.0,40,0.00,,,0.00,VWS V14.00,2013-11-11 23:50:00,
2013-11-11 18:55:00,42.4,19.8,29.15,SW,229,0.0,0.0,40,0.00,,,0.00,VWS V14.00,2013-11-11 23:55:00,
2013-11-11 19:00:00,42.1,19.5,29.15,SW,229,0.0,0.0,40,0.00,,,0.00,VWS V14.00,2013-11-12 00:00:00,
2013-11-11 19:05:00,41.7,19.2,29.15,SW,229,0.0,0.0,40,0.00,,,0.00,VWS V14.00,2013-11-12 00:05:00,
2013-11-11 19:10:00,41.2,18.7,29.15,SW,229,0.0,0.0,40,0.00,,,0.00,VWS V14.00,2013-11-12 00:10:00,
2013-11-11 19:15:00,40.8,19.0,29.15,SW,229,0.0,0.0,41,0.00,,,0.00,VWS V14.00,2013-11-12 00:15:00,
2013-11-11 19:20:00,40.3,18.5,29.15,SW,229,0.0,0.0,41,0.00,,,0.00,VWS V14.00,2013-11-12 00:20:00,
2013-11-11 19:25:00,40.1,18.3,29.15,SW,229,0.0,0.0,41,0.00,,,0.00,VWS V14.00,2013-11-12 00:25:00,
2013-11-11 19:30:00,39.9,18.1,29.15,SW,229,0.0,0.0,41,0.00,,,0.00,VWS V14.00,2013-11-12 00:30:00,
2013-11-11 19:35:00,39.7,18.5,29.15,SW,229,0.0,0.0,42,0.00,,,0.00,VWS V14.00,2013-11-12 00:35:00,
2013-11-11 19:40:00,39.6,18.4,29.15,SW,229,0.0,0.0,42,0.00,,,0.00,VWS V14.00,2013-11-12 00:40:00,
2013-11-11 19:45:00,39.6,18.4,29.15,SW,229,0.0,0.0,42,0.00,,,0.00,VWS V14.00,2013-11-12 00:45:00,
2013-11-11 19:50:00,39.6,18.4,29.15,SW,229,0.0,0.0,42,0.00,,,0.00,VWS V14.00,2013-11-12 00:50:00,
2013-11-11 19:55:00,39.4,18.2,29.15,SW,229,0.0,0.0,42,0.00,,,0.00,VWS V14.00,2013-11-12 00:55:00,
2013-11-11 20:00:00,39.4,18.8,29.15,SW,229,0.0,0.0,43,0.00,,,0.00,VWS V14.00,2013-11-12 01:00:00,
2013-11-11 20:05:00,39.2,18.6,29.15,SW,229,0.0,0.0,43,0.00,,,0.00,VWS V14.00,2013-11-12 01:05:00,
2013-11-11 20:10:00,39.0,18.4,29.15,SW,229,0.0,0.0,43,0.00,,,0.00,VWS V14.00,2013-11-12 01:10:00,
2013-11-11 20:15:00,39.0,18.4,29.15,SW,229,0.0,0.0,43,0.00,,,0.00,VWS V14.00,2013-11-12 01:15:00,
2013-11-11 20:20:00,38.8,18.8,29.15,SW,229,0.0,0.0,44,0.00,,,0.00,VWS V14.00,2013-11-12 01:20:00,
2013-11-11 20:25:00,38.8,18.8,29.15,SW,229,0.0,0.0,44,0.00,,,0.00,VWS V14.00,2013-11-12 01:25:00,
2013-11-11 20:30:00,38.7,18.6,29.15,SW,229,0.0,0.0,44,0.00,,,0.00,VWS V14.00,2013-11-12 01:30:00,
2013-11-11 20:35:00,38.5,18.5,29.15,SW,229,0.0,0.0,44,0.00,,,0.00,VWS V14.00,2013-11-12 01:35:00,
2013-11-11 20:40:00,38.3,18.3,29.15,SW,229,0.0,0.0,44,0.00,,,0.00,VWS V14.00,2013-11-12 01:40:00,
2013-11-11 20:45:00,38.3,18.8,29.15,SW,229,0.0,0.0,45,0.00,,,0.00,VWS V14.00,2013-11-12 01:45:00,
2013-11-11 20:50:00,38.1,18.7,29.15,SW,229,0.0,0.0,45,0.00,,,0.00,VWS V14.00,2013-11-12 01:50:00,
2013-11-11 20:55:00,38.1,18.7,29.15,SW,229,0.0,0.0,45,0.00,,,0.00,VWS V14.00,2013-11-12 01:55:00,
2013-11-11 21:00:00,37.9,18.5,29.15,SW,229,0.0,0.0,45,0.00,,,0.00,VWS V14.00,2013-11-12 02:00:00,
2013-11-11 21:05:00,37.8,18.3,29.15,SW,229,0.0,0.0,45,0.00,,,0.00,VWS V14.00,2013-11-12 02:05:00,
2013-11-11 21:10:00,37.6,18.7,29.15,SW,229,0.0,0.0,46,0.00,,,0.00,VWS V14.00,2013-11-12 02:10:00,
2013-11-11 21:15:00,37.4,18.5,29.15,SW,229,0.0,0.0,46,0.00,,,0.00,VWS V14.00,2013-11-12 02:15:00,
2013-11-11 21:20:00,37.4,18.5,29.15,SW,229,0.0,0.0,46,0.00,,,0.00,VWS V14.00,2013-11-12 02:20:00,
2013-11-11 21:25:00,37.4,18.5,29.15,SW,229,0.0,0.0,46,0.00,,,0.00,VWS V14.00,2013-11-12 02:25:00,
2013-11-11 21:30:00,37.2,18.9,29.15,SW,229,0.0,0.0,47,0.00,,,0.00,VWS V14.00,2013-11-12 02:30:00,
2013-11-11 21:35:00,37.2,18.9,29.15,SW,229,0.0,0.0,47,0.00,,,0.00,VWS V14.00,2013-11-12 02:35:00,
2013-11-11 21:40:00,37.2,19.4,29.15,SW,221,0.0,0.0,48,0.00,,,0.00,VWS V14.00,2013-11-12 02:40:00,
2013-11-11 21:45:00,37.2,19.4,29.12,SW,221,0.0,0.0,48,0.00,,,0.00,VWS V14.00,2013-11-12 02:45:00,
2013-11-11 21:50:00,37.0,19.2,29.12,SW,221,0.0,0.0,48,0.00,,,0.00,VWS V14.00,2013-11-12 02:50:00,
2013-11-11 21:55:00,36.9,19.5,29.12,SW,221,0.0,0.0,49,0.00,,,0.00,VWS V14.00,2013-11-12 02:55:00,
2013-11-11 22:00:00,36.7,19.3,29.12,SW,221,0.0,0.0,49,0.00,,,0.00,VWS V14.00,2013-11-12 03:00:00,
2013-11-11 22:05:00,36.7,19.3,29.12,SW,221,0.0,0.0,49,0.00,,,0.00,VWS V14.00,2013-11-12 03:05:00,
2013-11-11 22:10:00,36.5,19.2,29.12,SW,221,0.0,0.0,49,0.00,,,0.00,VWS V14.00,2013-11-12 03:10:00,
2013-11-11 22:15:00,36.3,19.0,29.12,SW,221,0.0,0.0,49,0.00,,,0.00,VWS V14.00,2013-11-12 03:15:00,
2013-11-11 22:20:00,36.3,19.5,29.12,SW,221,0.0,0.0,50,0.00,,,0.00,VWS V14.00,2013-11-12 03:20:00,
2013-11-11 22:25:00,36.1,19.3,29.12,SW,221,0.0,0.0,50,0.00,,,0.00,VWS V14.00,2013-11-12 03:25:00,
2013-11-11 22:30:00,36.1,19.3,29.12,SW,221,0.0,0.0,50,0.00,,,0.00,VWS V14.00,2013-11-12 03:30:00,
2013-11-11 22:35:00,36.0,19.1,29.12,SW,221,0.0,0.0,50,0.00,,,0.00,VWS V14.00,2013-11-12 03:35:00,
2013-11-11 22:40:00,36.0,19.1,29.12,SW,221,0.0,0.0,50,0.00,,,0.00,VWS V14.00,2013-11-12 03:40:00,
2013-11-11 22:45:00,36.0,19.1,29.12,SW,221,0.0,0.0,50,0.00,,,0.00,VWS V14.00,2013-11-12 03:45:00,
2013-11-11 22:50:00,36.0,19.6,29.12,SW,221,0.0,0.0,51,0.00,,,0.00,VWS V14.00,2013-11-12 03:50:00,
2013-11-11 22:55:00,36.0,19.6,29.12,SW,221,0.0,0.0,51,0.00,,,0.00,VWS V14.00,2013-11-12 03:55:00,
2013-11-11 23:00:00,36.0,19.6,29.12,SW,221,0.0,0.0,51,0.00,,,0.00,VWS V14.00,2013-11-12 04:00:00,
2013-11-11 23:05:00,35.8,19.4,29.12,SW,221,0.0,0.0,51,0.00,,,0.00,VWS V14.00,2013-11-12 04:05:00,
2013-11-11 23:10:00,36.0,19.6,29.12,SW,221,0.0,0.0,51,0.00,,,0.00,VWS V14.00,2013-11-12 04:10:00,
2013-11-11 23:15:00,36.0,19.6,29.12,SW,221,0.0,0.0,51,0.00,,,0.00,VWS V14.00,2013-11-12 04:15:00,
2013-11-11 23:20:00,36.0,19.6,29.12,SW,221,0.0,0.0,51,0.00,,,0.00,VWS V14.00,2013-11-12 04:20:00,
2013-11-11 23:25:00,35.8,19.9,29.12,SW,221,0.0,0.0,52,0.00,,,0.00,VWS V14.00,2013-11-12 04:25:00,
2013-11-11 23:30:00,35.8,19.9,29.12,SW,221,0.0,0.0,52,0.00,,,0.00,VWS V14.00,2013-11-12 04:30:00,
2013-11-11 23:35:00,35.8,19.9,29.12,SW,221,0.0,0.0,52,0.00,,,0.00,VWS V14.00,2013-11-12 04:35:00,
2013-11-11 23:40:00,35.8,19.9,29.12,SW,221,0.0,0.0,52,0.00,,,0.00,VWS V14.00,2013-11-12 04:40:00,
2013-11-11 23:45:00,35.8,19.9,29.12,SW,221,0.0,0.0,52,0.00,,,0.00,VWS V14.00,2013-11-12 04:45:00,
2013-11-11 23:50:00,35.8,19.9,29.12,SW,221,0.0,0.0,52,0.00,,,0.00,VWS V14.00,2013-11-12 04:50:00,
2013-11-11 23:55:00,35.8,19.9,29.12,SW,221,0.0,0.0,52,0.00,,,0.00,VWS V14.00,2013-11-12 04:55:00,